| time (UTC) | temp F | wind direction | speed knots | gust knots | rain 1hr in | rain 24hr in | rain mn in | humidity % | barometer mb |
| 20260505151128 | 83 | 0 | 3.5 | 0.0 | 0.00 | 0.00 | 0.00 | 23 | 968.0 |
| 20260505124128 | 84 | 0 | 0.0 | 0.0 | 0.00 | 0.00 | 0.00 | 24 | 970.0 |
| 20260505121128 | 84 | 0 | 0.0 | 0.0 | 0.00 | 0.00 | 0.00 | 24 | 970.0 |
| 20260505114128 | 82 | 0 | 5.2 | 0.0 | 0.00 | 0.00 | 0.00 | 26 | 971.0 |
| 20260505111128 | 81 | 0 | 1.7 | 0.0 | 0.00 | 0.00 | 0.00 | 29 | 970.0 |
| 20260505101128 | 79 | 0 | 3.5 | 0.0 | 0.00 | 0.00 | 0.00 | 33 | 971.0 |
| 20260505094128 | 78 | 0 | 0.9 | 0.0 | 0.00 | 0.00 | 0.00 | 35 | 972.0 |
| 20260505091128 | 75 | 0 | 0.0 | 0.0 | 0.00 | 0.00 | 0.00 | 37 | 972.0 |
| 20260505084128 | 73 | 0 | 1.7 | 0.0 | 0.00 | 0.00 | 0.00 | 41 | 972.0 |
| 20260505081128 | 70 | 0 | 0.0 | 0.0 | 0.00 | 0.00 | 0.00 | 45 | 973.0 |
| 20260505074128 | 67 | 0 | 0.0 | 0.0 | 0.00 | 0.00 | 0.00 | 50 | 973.0 |
| 20260505071128 | 63 | 0 | 0.0 | 0.0 | 0.00 | 0.00 | 0.00 | 59 | 972.0 |
| 20260505064128 | 59 | 0 | 0.0 | 0.0 | 0.00 | 0.00 | 0.00 | 68 | 973.0 |
| 20260505061128 | 56 | 0 | 0.0 | 0.0 | 0.00 | 0.00 | 0.00 | 73 | 973.0 |
| 20260505054128 | 52 | 0 | 0.9 | 0.0 | 0.00 | 0.00 | 0.00 | 78 | 973.0 |
| 20260505051128 | 51 | 0 | 0.9 | 0.0 | 0.00 | 0.00 | 0.00 | 78 | 973.0 |
| 20260505041128 | 50 | 0 | 0.0 | 0.0 | 0.00 | 0.00 | 0.00 | 77 | 973.0 |
| 20260505034128 | 50 | 0 | 1.7 | 0.0 | 0.00 | 0.00 | 0.00 | 77 | 973.0 |
| 20260505031128 | 51 | 0 | 0.9 | 0.0 | 0.00 | 0.00 | 0.00 | 75 | 973.0 |
| 20260505024128 | 52 | 0 | 2.6 | 0.0 | 0.00 | 0.00 | 0.00 | 74 | 974.0 |
| 20260505021128 | 53 | 0 | 1.7 | 0.0 | 0.00 | 0.00 | 0.00 | 73 | 973.0 |
| 20260505014128 | 54 | 0 | 0.9 | 0.0 | 0.00 | 0.00 | 0.00 | 71 | 973.0 |
| 20260505011128 | 55 | 0 | 0.9 | 0.0 | 0.00 | 0.00 | 0.00 | 69 | 973.0 |
| 20260505004128 | 56 | 0 | 0.9 | 0.0 | 0.00 | 0.00 | 0.00 | 66 | 973.0 |
| 20260505001128 | 56 | 0 | 0.0 | 0.0 | 0.00 | 0.00 | 0.00 | 64 | 974.0 |
| 20260504234128 | 57 | 0 | 0.9 | 0.0 | 0.00 | 0.00 | 0.00 | 61 | 974.0 |
| 20260504231128 | 57 | 0 | 1.7 | 0.0 | 0.00 | 0.00 | 0.00 | 59 | 974.0 |
| 20260504224128 | 57 | 0 | 0.0 | 0.0 | 0.00 | 0.00 | 0.00 | 59 | 974.0 |
| 20260504221128 | 58 | 0 | 0.0 | 0.0 | 0.00 | 0.00 | 0.00 | 56 | 975.0 |
| 20260504214128 | 60 | 0 | 2.6 | 0.0 | 0.00 | 0.00 | 0.00 | 54 | 974.0 |
| 20260504211128 | 61 | 0 | 0.9 | 0.0 | 0.00 | 0.00 | 0.00 | 51 | 974.0 |
| 20260504204128 | 62 | 0 | 0.9 | 0.0 | 0.00 | 0.00 | 0.00 | 49 | 974.0 |
| 20260504201128 | 62 | 0 | 0.0 | 0.0 | 0.00 | 0.00 | 0.00 | 48 | 974.0 |
| 20260504194128 | 64 | 0 | 0.0 | 0.0 | 0.00 | 0.00 | 0.00 | 46 | 974.0 |
| 20260504191128 | 65 | 0 | 0.9 | 0.0 | 0.00 | 0.00 | 0.00 | 43 | 974.0 |
| 20260504184128 | 67 | 0 | 0.0 | 0.0 | 0.00 | 0.00 | 0.00 | 40 | 973.0 |
| 20260504181128 | 70 | 0 | 0.0 | 0.0 | 0.00 | 0.00 | 0.00 | 37 | 974.0 |
| 20260504174128 | 73 | 0 | 0.0 | 0.0 | 0.00 | 0.00 | 0.00 | 34 | 974.0 |
| 20260504171128 | 76 | 0 | 0.0 | 0.0 | 0.00 | 0.00 | 0.00 | 30 | 974.0 |